Theta_e
297 297 296 295 295 295 294 294 291 294 294 298 300 301 302 304 304 303 303 303 303 303 303 302 301 301 302 303 303 302 301 300 298 298 298 296 295 295 294 293 292 292 291 291
292 296 295 293 295 296 296 296 296 296 295 302 303 303 303 302 302 302 302 302 301 301 300 299 300 300 301 302 301 301 300 298 298 297 296 295 294 293 292 291 291 291 290 290
289 295 293 289 295 295 295 297 297 292 297 301 301 301 299 300 302 301 300 299 300 299 299 300 300 301 301 301 301 300 299 298 297 296 295 293 292 291 290 290 291 290 289 289
289 289 284 296 300 299 296 298 299 299 299 301 300 301 301 302 301 299 298 299 299 299 299 299 300 300 301 301 300 299 298 296 296 295 294 292 291 290 290 290 290 289 289 288
287 287 292 295 297 296 294 294 300 299 301 301 302 302 299 301 301 299 299 300 300 299 298 298 298 299 299 299 298 297 296 295 294 294 292 291 290 290 290 289 289 288 288 287
290 284 283 294 299 301 300 290 301 301 300 298 299 293 296 300 300 299 300 299 298 298 298 297 297 298 297 296 296 296 295 294 294 293 292 290 290 289 290 289 288 288 287 286
288 286 291 298 299 302 288 292 302 301 299 299 295 297 299 299 299 298 297 297 298 297 296 296 296 296 295 295 294 295 295 294 294 294 292 291 290 290 289 289 288 287 286 286
289 285 283 300 299 293 300 303 302 299 299 298 299 298 298 296 296 296 296 296 296 294 294 295 295 294 293 292 295 295 295 294 293 293 291 290 290 289 289 288 287 286 285 285
294 294 302 303 302 305 304 301 300 298 298 299 297 296 295 295 295 295 295 294 294 293 293 294 294 293 291 294 296 295 293 293 292 291 290 290 289 288 287 287 285 283 282 282
296 299 300 301 304 304 303 301 299 298 300 298 295 295 294 294 294 293 293 292 293 292 292 292 293 293 293 294 293 293 291 290 290 289 288 289 289 288 286 285 283 282 281 279
298 301 301 303 302 302 301 301 300 300 298 296 295 294 294 293 292 292 292 292 293 292 292 292 293 292 293 293 291 289 289 288 288 289 288 288 287 287 286 285 282 280 279 279
295 301 300 300 302 302 301 299 298 296 295 296 295 294 293 292 292 292 292 292 292 292 292 292 292 291 291 291 290 288 287 287 288 288 288 287 286 285 281 280 279 278 277 277
302 304 302 301 300 301 299 297 297 295 296 294 294 293 293 292 292 291 292 292 292 292 292 292 290 288 289 290 289 287 286 286 287 286 286 285 284 283 282 283 280 279 277 277
303 301 295 297 297 298 297 296 296 296 295 294 293 293 292 291 291 291 291 292 292 292 291 290 289 288 289 289 288 287 286 285 286 286 286 285 283 282 282 281 280 281 280 277
298 299 298 299 298 296 296 295 292 291 292 291 292 291 291 290 290 291 292 292 291 289 290 289 288 288 289 288 286 286 285 284 285 285 284 283 283 283 283 282 281 280 280 280
298 298 298 295 294 293 292 291 290 290 290 290 290 290 291 291 291 291 291 292 287 285 287 285 284 287 288 288 287 287 287 283 283 283 283 283 283 282 281 281 280 280 279 279
295 293 293 291 290 290 290 291 291 290 290 290 289 290 289 288 287 288 289 289 287 286 286 285 285 288 287 287 286 287 285 284 283 283 283 282 282 282 281 281 280 280 280 278
296 294 291 290 290 290 290 291 290 290 289 290 288 286 285 285 285 286 286 287 286 286 286 285 286 287 286 286 286 285 283 283 283 283 282 283 282 281 281 280 280 279 280 279
292 290 291 291 291 291 291 290 290 290 288 287 286 285 286 285 286 287 287 285 285 285 287 288 284 283 285 284 283 284 284 283 283 283 283 282 282 282 281 281 280 280 280 279
290 291 291 291 291 290 289 290 288 289 290 289 286 285 285 285 286 286 286 285 286 287 289 288 286 285 285 285 282 284 284 283 282 283 283 282 282 282 281 281 281 280 280 280
289 290 290 290 290 290 287 287 286 287 288 287 285 285 284 285 285 285 285 286 289 288 289 287 286 287 287 286 284 286 285 284 283 283 283 283 282 281 281 281 282 281 280 280
290 289 288 288 288 289 290 290 289 287 286 286 285 285 284 285 285 286 287 286 290 286 288 288 288 286 287 283 286 286 284 283 284 284 283 283 283 281 280 281 281 281 281 280
289 289 289 288 287 289 290 288 287 286 285 286 285 285 286 287 287 285 285 290 289 287 289 288 287 284 283 285 285 285 285 284 283 284 284 284 283 282 281 280 281 280 280 280
289 289 289 290 289 288 286 290 290 289 287 287 286 286 287 285 286 290 289 288 286 285 286 287 286 284 283 284 285 284 285 285 285 285 284 284 284 283 282 281 280 281 281 280
290 289 289 288 288 289 290 290 290 290 289 289 288 289 288 288 286 286 286 286 285 285 286 285 284 284 284 284 284 285 284 284 284 284 283 284 284 284 283 282 281 281 281 281
289 290 290 290 291 291 291 290 290 290 288 287 289 288 288 288 288 286 287 286 286 286 285 285 285 284 284 285 285 285 284 284 283 282 282 282 282 282 282 282 282 281 281 281
290 288 290 291 291 291 292 291 289 287 286 286 285 287 288 287 286 286 286 286 286 286 286 286 286 285 285 285 285 285 284 284 283 282 281 281 281 281 280 281 281 281 281 281
Wind_Speed
10 13 11 12 13 13 15 14 14 15 17 14 12 11 11 8 11 13 14 13 13 15 14 12 11 9 10 9 11 11 11 12 11 8 10 10 10 10 11 12 12 12 13 13
5 7 10 14 17 18 16 10 14 13 15 9 7 7 10 15 16 15 14 13 15 14 12 14 11 12 12 11 11 12 12 11 10 9 9 10 10 10 11 11 12 12 13 13
5 12 13 6 3 1 4 7 7 10 10 7 10 14 13 13 12 11 9 13 16 13 12 13 14 14 12 11 12 11 11 11 11 7 10 10 11 11 11 12 12 13 13 13
4 7 3 6 9 13 10 9 10 8 8 9 13 13 11 5 10 11 12 14 12 13 13 15 17 17 14 14 16 14 12 13 9 8 10 11 10 11 11 11 12 12 12 12
2 5 15 11 5 6 8 13 10 7 10 12 17 14 1 2 11 10 11 12 12 13 15 17 18 18 15 15 15 15 16 10 8 9 12 10 11 11 12 12 12 11 11 13
3 3 4 3 7 5 7 9 8 7 11 11 13 11 10 14 13 12 13 13 14 15 16 17 17 18 19 18 16 15 14 8 9 10 10 10 10 12 11 12 12 9 9 11
6 6 9 8 4 5 4 4 7 9 5 11 8 9 12 12 12 13 13 15 15 15 16 17 18 19 19 20 17 12 12 6 8 11 9 9 9 11 12 12 11 7 7 10
4 4 7 4 4 3 9 11 6 4 5 6 9 9 10 11 13 14 16 17 17 16 16 17 18 18 20 22 18 12 11 8 9 12 7 8 11 11 11 13 9 8 8 9
8 6 9 7 8 10 3 5 6 2 5 11 9 10 11 12 14 16 18 17 17 16 17 17 18 19 20 18 18 13 13 11 10 9 9 10 10 11 10 9 8 8 10 9
8 7 13 8 9 8 6 2 4 5 13 6 10 10 13 14 15 16 16 17 16 17 18 17 17 18 18 13 13 13 9 11 9 9 7 9 8 8 7 8 7 9 10 10
14 16 14 10 7 4 2 3 5 8 6 8 10 13 16 15 16 16 17 16 16 16 16 17 17 17 15 11 10 10 10 9 9 7 8 8 9 6 7 5 3 6 7 8
10 7 5 6 5 5 5 5 3 5 8 9 13 16 18 16 16 16 17 18 17 18 18 17 17 15 13 7 9 9 9 8 7 6 6 6 7 7 6 3 5 4 1 5
10 1 3 3 2 6 3 2 4 7 11 15 15 15 17 16 16 16 18 17 17 18 17 16 13 9 7 7 5 7 8 8 7 6 4 5 5 6 7 0 9 6 5 5
2 6 3 6 4 3 2 3 4 9 12 13 16 16 17 17 18 18 17 17 17 16 15 14 11 7 6 7 6 5 7 6 5 6 5 5 6 5 5 6 7 5 6 4
6 5 4 6 4 4 3 7 10 12 13 14 13 15 15 17 17 18 18 16 13 13 15 13 9 9 7 5 6 7 4 5 5 4 3 4 5 4 5 6 7 6 7 4
7 8 8 3 2 4 7 9 12 12 13 14 14 14 15 17 18 18 16 12 7 10 13 10 8 8 5 7 8 8 3 3 5 4 4 4 4 4 5 6 7 6 6 7
9 7 3 3 5 7 8 9 11 12 12 13 14 13 15 14 14 14 14 13 7 8 8 8 8 9 5 8 6 7 3 4 2 5 4 4 4 5 4 5 6 6 6 4
4 5 1 3 6 8 9 9 9 10 11 13 10 9 10 10 13 13 13 13 8 8 7 9 6 8 5 8 5 6 5 4 4 4 4 4 4 5 5 5 6 6 5 2
3 1 4 6 7 8 8 10 10 8 7 7 8 10 11 11 12 13 12 11 10 10 9 7 7 6 7 4 3 5 4 5 5 5 4 4 6 5 5 5 5 6 5 5
2 4 7 9 8 7 8 9 7 10 10 8 6 9 12 11 10 12 11 12 10 8 4 7 9 8 6 5 5 6 4 6 7 6 5 4 5 5 5 6 6 6 5 5
6 8 7 5 7 6 6 7 6 9 10 6 8 10 12 13 13 12 12 10 11 4 7 8 9 8 7 6 6 5 4 5 6 6 6 5 5 5 5 6 6 5 5 4
7 7 5 6 8 9 7 7 8 7 9 10 8 8 11 12 10 10 9 12 10 4 5 6 8 10 5 4 5 2 4 6 6 5 5 5 5 5 5 5 5 5 4 4
10 10 9 6 7 11 9 7 8 8 9 9 9 10 10 9 9 9 11 10 6 6 6 5 5 6 6 4 4 5 5 6 6 5 5 5 5 5 5 5 5 5 5 5
11 10 10 8 6 7 10 11 7 7 6 8 10 11 7 8 9 8 9 8 8 5 5 4 6 7 8 5 5 6 6 6 6 5 6 7 5 6 5 5 5 5 5 5
7 9 9 8 9 9 11 10 8 8 8 10 10 7 7 6 7 10 8 6 8 6 6 7 8 9 6 6 6 5 5 5 5 5 6 6 6 5 5 5 6 6 5 6
10 9 9 12 10 9 8 7 8 8 8 9 8 6 6 6 7 8 7 7 7 6 6 5 6 6 7 7 7 6 6 6 6 6 6 6 6 6 6 6 6 6 6 6
10 8 9 9 9 8 7 7 7 9 7 8 10 8 8 7 7 8 9 7 7 7 6 6 7 8 8 8 7 6 6 6 6 6 6 6 5 6 6 6 6 5 5 6
Wind_Direction
303 304 306 298 285 272 263 260 256 276 285 309 333 0 338 326 335 334 318 345 350 329 325 324 289 310 304 320 307 305 315 314 324 313 300 329 314 321 319 317 317 320 317 315
277 298 318 305 287 273 263 275 283 289 296 7 345 325 331 351 329 332 352 340 325 321 313 300 320 309 303 290 306 322 308 314 307 303 327 307 314 312 316 318 323 321 317 315
281 339 321 280 263 325 284 276 254 267 289 347 324 6 346 340 334 347 335 310 314 307 302 309 308 308 300 309 303 291 292 300 304 317 295 302 312 315 317 320 316 316 315 318
299 310 305 44 299 295 276 286 279 289 353 17 356 336 340 14 349 330 323 314 307 310 313 314 314 308 305 314 307 305 300 295 308 292 293 297 306 308 321 311 317 314 317 327
271 295 290 296 54 6 337 302 324 1 10 344 333 323 50 37 351 321 303 299 312 314 319 317 318 316 319 311 297 310 312 319 325 295 281 305 306 323 308 312 311 319 335 333
162 271 270 50 29 351 296 264 51 2 346 338 325 319 328 354 333 319 302 315 313 320 311 317 322 323 318 309 307 303 297 322 311 295 297 296 312 310 308 309 318 340 327 319
226 246 268 304 16 292 257 13 342 347 329 307 319 324 328 304 298 309 314 310 324 315 324 326 328 319 312 308 306 306 300 311 298 291 297 302 302 298 311 323 333 347 315 314
212 254 270 154 210 263 337 323 2 310 283 296 310 311 289 312 309 311 318 323 323 326 327 327 323 324 321 312 325 337 308 317 331 306 309 302 298 304 332 328 333 337 319 304
192 246 304 225 240 256 295 346 349 343 334 285 312 309 314 305 317 321 320 322 327 329 325 323 328 327 318 340 333 356 343 333 302 294 288 291 320 320 325 323 345 329 316 323
277 258 296 312 316 63 79 108 158 204 254 305 303 313 307 318 321 320 325 324 329 326 322 322 326 330 326 354 330 326 316 309 306 295 336 307 315 325 331 348 338 325 331 331
266 288 301 287 73 90 177 246 244 257 305 299 302 312 318 319 320 325 320 325 323 309 313 323 329 330 341 330 341 337 313 306 310 302 308 332 319 349 337 17 10 327 324 327
262 310 287 331 27 306 265 218 274 318 307 308 313 317 319 320 324 320 330 314 317 321 326 329 331 339 331 337 328 320 318 307 336 318 331 314 326 333 86 86 175 201 257 318
299 77 206 112 289 248 308 2 317 322 310 318 315 315 320 315 313 322 312 319 325 322 325 327 319 324 322 330 319 327 322 315 318 295 330 333 337 334 324 185 227 210 221 286
34 125 80 185 202 164 273 303 280 310 311 317 325 323 322 319 320 317 320 324 322 323 316 313 313 308 318 305 320 301 297 283 295 331 343 347 337 329 317 324 318 334 211 247
123 92 70 206 199 215 276 329 320 314 325 321 326 323 327 322 318 317 316 320 322 311 306 319 334 319 311 321 287 289 320 319 325 322 313 307 297 304 306 316 317 328 325 330
168 176 168 193 289 327 331 322 317 317 322 328 322 326 323 318 314 317 313 310 304 302 304 312 295 280 287 295 298 294 291 144 285 297 289 296 303 307 312 318 320 332 328 348
167 173 179 269 320 320 316 317 318 327 319 317 318 326 317 314 306 303 316 309 256 255 280 277 265 270 279 277 293 297 331 304 265 283 294 312 308 294 309 311 314 321 330 51
143 102 112 310 305 304 306 320 313 309 307 315 309 302 299 295 298 306 307 304 267 260 263 264 247 249 257 276 317 315 303 291 276 273 286 291 307 303 291 300 304 315 325 341
123 272 308 303 310 308 302 303 305 314 291 277 289 294 291 285 286 289 293 293 281 272 276 213 198 229 257 258 265 275 270 284 280 272 273 294 283 288 287 288 306 310 310 309
278 305 312 306 320 299 291 290 286 290 290 293 286 288 289 293 293 292 299 293 282 271 244 212 190 219 239 244 210 272 268 271 269 268 258 274 279 291 294 279 279 290 300 299
303 302 294 279 274 268 249 264 269 278 288 287 273 282 294 302 300 297 293 299 306 249 236 219 208 229 222 217 201 241 256 269 262 261 266 271 281 283 288 284 278 282 288 292
294 291 257 259 266 275 274 266 273 270 278 283 272 280 299 293 296 293 285 273 288 218 218 221 215 227 253 162 255 225 269 271 268 270 270 268 270 288 289 288 287 282 282 282
290 285 279 254 254 280 297 286 268 259 269 276 278 285 280 294 298 299 298 312 301 264 222 233 219 171 183 205 258 232 236 250 258 262 265 263 265 278 280 282 290 295 288 282
286 281 276 279 282 278 281 287 275 285 262 275 258 257 277 303 298 301 288 305 286 264 248 247 192 193 190 210 233 247 245 243 252 259 262 255 247 253 255 266 269 274 275 266
278 275 278 264 265 267 271 290 301 277 295 298 301 291 285 289 282 303 286 288 271 257 244 225 211 209 207 221 237 231 249 255 258 266 276 280 277 261 257 258 265 265 267 268
280 278 288 294 283 284 292 294 291 304 311 301 293 299 299 285 284 293 281 273 263 251 238 227 212 213 215 223 232 227 245 251 243 251 260 264 269 272 266 262 264 269 265 260
284 271 273 270 262 261 272 298 308 301 302 295 294 296 296 295 290 295 289 268 261 249 241 232 221 216 218 227 226 221 236 238 237 249 263 263 265 267 271 275 274 274 276 276